www.pogodaiklimat.ru

Погода и климат >> Архив погоды >> Антарктида >> Novolazarevskaja


ПОГОДА в Novolazarevskaja

  • Прогноз погоды в Novolazarevskaja
  • Монитор погоды в Novolazarevskaja
  • Климат города

АРХИВ ПОГОДЫ в Novolazarevskaja

Время (UTC), дата Ветер
(напр.,м/с)
 
Видим.   Явления Облачность Т
(С)
Тd
(С)
f
(%)
Тe
(С)
Тes
(С)
Комфортность P
(гПа)
Po
(гПа)
Тmin
(С)
Tmax
(С)
R
(мм)
R24
(мм)
S
(см)
18 11.10 С 1 20 км ясно -20.5 -33.5 30 -24 -24 985.5 969.6 -16.1
00 12.10 ЮВ 2 20 км ясно -19.9 -33.1 30 -26 -26 986.5 970.6
06 12.10 ЮВ 5
{6}
20 км ясно -19.7 -31.2 35 -30 -29 987.0 971.1 -24.3
12 12.10 В 4
{8}
20 км ясно -17.5 -31.8 28 -25 -22 987.1 971.3
18 12.10 ЮВ 5
{6}
20 км ясно -18.8 -31.8 31 -28 -28 984.6 968.8 -17.3
00 13.10 ЮВ 10
{12}
20 км ясно -17.8 -27.2 44 -31 -31 опасность
обморожения
984.5 968.8
06 13.10 ЮВ 8
{12}
10 км позёмок {метель} 1/0
[Ac trans]
-17.5 -27.9 40 -29 -29 987.4 971.6 -20.1
12 13.10 В 8
{11}
10 км позёмок {метель} 1/0
[Ci fib]
-14.8 -25.8 39 -26 -25 988.5 972.9
18 13.10 ЮВ 4
{8}
20 км {метель} 3/0
[Ci fib]
-15.7 -26.8 38 -23 -23 989.5 973.8 -14.0
00 14.10 Ю 7
{8}
20 км 3/0
[Ci fib]
-16.9 -32.5 24 -27 -27 988.9 973.1
06 14.10 Ю 7
{9}
20 км 9/0
[Ac trans Ci fib]
-17.2 -31.7 27 -28 -28 987.9 972.1 -18.9
12 14.10 ЮВ 3
{8}
20 км 9/0
[Ac trans Cs]
-12.9 -25.0 36 -18 -15 987.7 972.2
18 14.10 ЮВ 1 20 км 9/0
[Ac trans Ci fib]
-15.3 -26.0 39 -18 -18 987.2 971.6 -12.8
00 15.10 ЮВ 6
{7}
20 км 9/0
[Ac trans Ci fib]
-17.3 -30.0 32 -27 -27 987.4 971.6
06 15.10 ЮВ 6
{7}
20 км 9/0
[Ac trans Ci fib]
-15.8 -29.4 30 -25 -25 989.3 973.6 -17.5
12 15.10 С 2
{7}
20 км 10/0
[Ac trans Cs]
-12.5 -23.8 38 -16 -12 992.8 977.2
18 15.10 штиль 0 20 км 10/0
[Ac trans Cs]
-15.3 -23.6 49 -15 -15 994.9 979.1 -12.4
00 16.10 Ю 3 20 км 8/0
[Ci fib]
-16.1 -30.3 28 -23 -23 994.8 979.0
06 16.10 ЮВ 7
{11}
20 км 10/0
[As trans]
-14.5 -27.4 32 -25 -25 990.5 974.9 -18.5
12 16.10 ЮВ 8
{10}
20 км {метель} 10/0
[As trans]
-10.7 -25.3 29 -20 -20 988.4 973.0
18 16.10 ЮВ 4
{9}
20 км 10/0
[Ac As]
-11.4 -23.1 37 -18 -18 990.3 974.8 -10.4
00 17.10 ЮВ 9
{10}
4000 м слабый снег 10/0
[As op]
-11.7 -21.5 44 -22 -22 989.8 974.3
06 17.10 ЮВ 8
{12}
2000 м снег {метель} 10/10 100 м
[Frnb Ns]
-12.3 -15.1 80 -23 -23 988.7 973.2 -12.5 1
12 17.10 ЮВ 11
{14}
50 м сильный снег {метель} 10/10 100 м
[Frnb Ns]
-12.2 -14.5 83 -24 -24 983.9 968.5
18 17.10 ЮВ 11
{14}
50 м сильный снег {метель} 10/10 100 м
[Frnb Ns]
-11.9 -14.0 84 -23 -23 983.3 967.9 -11.8 3
00 18.10 ЮВ 14
{16}
50 м сильный снег {метель} 10/10 100 м
[Frnb Ns]
-10.2 -12.1 86 -23 -23 977.4 962.2
06 18.10 ЮВ 16
{19}
50 м сильная метель {снег} ?/? -9.3 -11.1 87 -22 -22 971.2 956.2 -12.1 4
12 18.10 ЮВ 17
{21}
50 м сильная метель ?/? -8.1 -9.6 89 -21 -21 965.6 950.7

 

Местоположение метеостанции Novolazarevskaja (Антарктида): широта -70.77 долгота 11.83 высота над уровнем моря 122 м.

В архиве по умолчанию представлена погода в Novolazarevskaja за последнюю неделю. Архивные данные за месяц целиком и за предыдущие месяцы, начиная с января 2011 года, Вы можете получить, выбрав интересующий диапазон дат из раскрывающегося списка и нажав кнопку "Ввод!".


*Определитесь, кто Вы:
робот инопланетянин человек

Внимание! Время в таблицах - всемирное. Для получения местного времени необходимо прибавить поправку, которая в Novolazarevskaja равна 0 ч.

Смотрите также архив погоды в соседних городах и на ближайших метеорологических станциях:

Погода в Maitri (Антарктида) (3 км)
Погода в Troll (Антарктида) (362 км)
Погода в SANAE (Антарктида) (532 км)
Погода в Kohnen Ep9 (Антарктида) (607 км)
Погода в Neumayer Station (Антарктида) (734 км)
Погода в Soerasen (Антарктида) (787 км)
Погода в Nordenskiold Base (Антарктида) (899 км)
Погода в Syowa (Антарктида) (1070 км)
Погода в Relay Station (Антарктида) (1096 км)
Погода в Halley (Антарктида) (1318 км)

Пояснения к столбцам:

Ветер - указаны скорость ветра в м/с - средняя за 10 мин, порывы в срок и между сроками (в фигурных скобках) и направление, откуда дует ветер: С - северный, СВ - северо-восточный, В - восточный, ЮВ - юго-восточный, Ю - южный, ЮЗ - юго-западный, З - западный, СЗ - северо-западный.
Видимость - горизонтальная дальность видимости в метрах или километрах. При видимости от 1 до 10 км при отсутствии осадков обычно наблюдается дымка, при ухудшении видимости до 1 км и менее - туман. В сухую погоду видимость может ухудшаться дымом, пылью или мглою.
Явления - указаны атмосферные явления, наблюдавшиеся в срок или в последний час перед сроком; фигурными скобками обозначены явления, наблюдавшиеся между сроками (за 1-3 часа до срока); квадратными скобками обозначены град или гололедные отложения с указанием их диаметра в мм.
Облачность - указаны через наклонную черту общая и нижняя облачность в баллах и высота нижней границы облаков в метрах; квадратными скобками обозначены формы облаков: Ci - перистые, Cs - перисто-слоистые, Cc - перисто-кучевые, Ac - высококучевые, As - высокослоистые, Sc - слоисто-кучевые, Ns - слоисто-дождевые, Cu - кучевые, Cb - кучево-дождевые. Подробнее классификацию облаков см. в Атласе облаков (PDF).
T - Температура воздуха - температура, измеренная на высоте 2 м над землей.
Td - Температура точки росы - температура, при понижении до которой содержащийся в воздухе водяной пар достигнет насыщения.
f - Относительная влажность воздуха - влажноcть воздуха, измеренная на высоте 2 м над землей.
Te - Эффективная температура - температура, которую ощущает одетый по сезону человек в тени. Характеристика душности погоды. При расчете учитывается влияние влажности воздуха и скорости ветра на теплоощущения человека.
Tes - Эффективная температура на солнце - температура, которую ощущает человек, с поправкой на солнечный нагрев. Характеристика знойности погоды. Зависит от высоты солнца над горизонтом, облачности и скорости ветра. Ночью, в пасмурную погоду, а также при ветре 12 м/с и более поправка равна нулю.
P - Атмосферное давление - приведенное к уровню моря атмосферное давление.
Po - Атмосферное давление - измеренное на уровне метеостанции атмосферное давление.
Tmin - Минимальная температура - минимум температуры воздуха на высоте 2 м над землей.
Tmax - Максимальная температура - максимум температуры воздуха на высоте 2 м над землей.
R - Количество осадков - Количество выпавших осадков за период времени, мм. При наведении курсора мыши на число - период времени, за который выпало указанное количество осадков.
R24 - Количество осадков - Количество выпавших осадков за 24 часа, мм.
S - Снежный покров - Высота снежного покрова, см. При наведении курсора мыши на число - состояние снежного покрова и степень покрытия местности в баллах.